This is the latest recevied weather packets stored in our database for station/object N4BBA. If no packets are shown the sender has not sent any weather packets the latest 10 day(s).
| Time | Temp. | Humidity | Pressure | Rain* | Wind** | Luminosity | Snow |
|---|---|---|---|---|---|---|---|
| 1777475705 | 19.44° C | 82% | 1013.2 hPa | 0 mm | - | 171 W/m² | - |
| 1777475401 | 19.44° C | 82% | 1013.3 hPa | 0 mm | - | 162 W/m² | - |
| 1777475096 | 18.89° C | 82% | 1013 hPa | 0 mm | - | 181 W/m² | - |
| 1777474793 | 19.44° C | 82% | 1013.1 hPa | 0 mm | - | 180 W/m² | - |
| 1777474489 | 19.44° C | 82% | 1013.1 hPa | 0 mm | - | 304 W/m² | - |
| 1777474186 | 19.44° C | 83% | 1012.7 hPa | 0 mm | - | 293 W/m² | - |
| 1777473884 | 18.89° C | 83% | 1012.9 hPa | 0 mm | - | 203 W/m² | - |
| 1777473581 | 18.89° C | 83% | 1013.2 hPa | 0 mm | - | 138 W/m² | - |
| 1777473277 | 18.89° C | 84% | 1013.2 hPa | 0 mm | - | 163 W/m² | - |
| 1777472972 | 18.89° C | 84% | 1013.3 hPa | 0 mm | - | 173 W/m² | - |
| 1777472669 | 18.89° C | 84% | 1013.4 hPa | 0 mm | - | 172 W/m² | - |
| 1777472366 | 18.89° C | 84% | 1013.5 hPa | 0 mm | - | 171 W/m² | - |
| 1777472064 | 18.89° C | 85% | 1013.4 hPa | 0 mm | - | 244 W/m² | - |
| 1777471759 | 18.89° C | 85% | 1013.4 hPa | 0 mm | - | 190 W/m² | - |
| 1777471455 | 18.89° C | 86% | 1013.6 hPa | 0 mm | - | 269 W/m² | - |
| 1777471152 | 18.33° C | 87% | 1013.4 hPa | 0 mm | - | 240 W/m² | - |
| 1777470849 | 17.78° C | 87% | 1013.3 hPa | 0 mm | - | 175 W/m² | - |
| 1777470546 | 17.78° C | 88% | 1013.6 hPa | 0 mm | - | 205 W/m² | - |
| 1777470242 | 17.78° C | 88% | 1013.7 hPa | 0 mm | - | 167 W/m² | - |
| 1777469938 | 17.78° C | 89% | 1013.9 hPa | 0 mm | - | 170 W/m² | - |
| 1777469634 | 17.78° C | 90% | 1013.9 hPa | 0 mm | - | 186 W/m² | - |
| 1777469330 | 17.22° C | 90% | 1013.9 hPa | 0 mm | - | 140 W/m² | - |
| 1777469025 | 17.22° C | 91% | 1014 hPa | 0 mm | - | 121 W/m² | - |
| 1777468720 | 17.22° C | 91% | 1014.1 hPa | 0 mm | - | 117 W/m² | - |
| 1777468417 | 17.22° C | 91% | 1014.2 hPa | 0 mm | - | 104 W/m² | - |
* Rain latest hour (hover to see other rain measurements)
** Current wind speed in m/s (hover to see current wind gust speed)